Location: Brede
(50.9167°N, 0.6000°E)
Time: 02:28:41
(UTC+00:00)

IRAS Rocket - Pass Details

Date: 08 August 2020
Orbit: 847 x 878 km, 100.1° (Epoch: 19 September)

Event Time Altitude Azimuth Distance (km) Brightness Sun altitude
Exits shadow 01:48:28 33° 189° (S) 1,404 4.8 -19.2°
Maximum altitude 01:50:52 61° 256° (WSW) 979 4.3 -19.0°
Drops below altitude 10° 01:56:26 10° 337° (NNW) 2,529 7.2 -18.6°
Sets 01:58:52 0° 341° (NNW) 3,475 8.0 -18.4°
